NORTHEAST SUFFOLK  -  Rip Current Statement Rip Current Statement        NORTHERN NASSAU  -  Rip Current Statement Rip Current Statement        NORTHERN QUEENS  -  Rip Current Statement Rip Current Statement     Air Quality Alert Air Quality Alert        NORTHWEST SUFFOLK  -  Rip Current Statement Rip Current Statement        SOUTHEAST SUFFOLK  -  Rip Current Statement Rip Current Statement        SOUTHERN NASSAU  -  Rip Current Statement Rip Current Statement        SOUTHERN QUEENS  -  Rip Current Statement Rip Current Statement     Air Quality Alert Air Quality Alert        SOUTHWEST SUFFOLK  -  Rip Current Statement Rip Current Statement      

Active alerts

Northern Queens
  Details for Northern Queens Rip Current Statement  +1 additional alert
Southern Queens
  Details for Southern Queens Rip Current Statement  +1 additional alert
Northern Nassau
  Details for Northern Nassau Rip Current Statement
Southern Nassau
  Details for Southern Nassau Rip Current Statement
Northwest Suffolk
  Details for Northwest Suffolk Rip Current Statement
Southwest Suffolk
  Details for Southwest Suffolk Rip Current Statement
Northeast Suffolk
  Details for Northeast Suffolk Rip Current Statement
Southeast Suffolk
  Details for Southeast Suffolk Rip Current Statement


WXM80 ListenWXM80 Stop

You find our weather info also at:

UK Metoffice

WeatherCloud

Weather Underground

Northeastern Weather Network

AWEKAS

Citizen Weather Observer Program (CWOP)

HAMweather, WeatherForYou, PWS Weather


Weather Underground History page Text

Daily Summary for December 3, 2017 Units:  English    Metric   Both
« Previous Day
Next Day »
Daily Weekly Monthly Yearly Custom
  High: Low: Average:
Temperature: 48.9 °F 34.9 °F 41.6 °F
Dew Point: 42.2 °F 32.0 °F 37.5 °F
Humidity: 93 % 70 % 86 %
Wind Speed: 3.1 mph 0.0 mph 0.3 mph
Wind Gust: 5.0 mph - -
Wind:- - East
Pressure: 30.31 in 30.06 in -
Precipitation: 0.00 in    
Historical Graphs
 
 
Tabular Data for December 3, 2017
Time Temperature Dew Point Pressure Wind Wind Speed Wind Gust Humidity Rainfall Rate (Hourly)
00:03 36.9 °F 33.7 °F 30.25 in Calm     88 % 0.00 in
00:08 36.9 °F 33.7 °F 30.25 in Calm     88 % 0.00 in
00:18 37.1 °F 33.9 °F 30.25 in Calm     88 % 0.00 in
00:33 37.2 °F 33.7 °F 30.25 in Calm     87 % 0.00 in
00:38 37.3 °F 33.8 °F 30.25 in South 0.1 mph 1.2 mph 87 % 0.00 in
00:48 37.4 °F 33.9 °F 30.22 in Calm     87 % 0.00 in
00:53 37.4 °F 33.9 °F 30.23 in Calm   1.2 mph 87 % 0.00 in
00:58 37.4 °F 33.9 °F 30.23 in Calm     87 % 0.00 in
01:03 37.5 °F 34.0 °F 30.23 in Calm     87 % 0.00 in
01:08 37.5 °F 34.0 °F 30.23 in Calm     87 % 0.00 in
01:13 37.5 °F 34.0 °F 30.22 in Calm     87 % 0.00 in
01:19 37.5 °F 34.0 °F 30.22 in Calm     87 % 0.00 in
01:24 37.5 °F 34.0 °F 30.23 in Calm     87 % 0.00 in
01:29 37.5 °F 33.7 °F 30.23 in Calm     86 % 0.00 in
01:39 37.3 °F 33.5 °F 30.23 in Calm     86 % 0.00 in
01:45 37.3 °F 33.5 °F 30.23 in Calm     86 % 0.00 in
02:00 37.0 °F 33.2 °F 30.22 in Calm     86 % 0.00 in
02:05 37.0 °F 33.2 °F 30.22 in Calm     86 % 0.00 in
02:10 36.8 °F 33.0 °F 30.22 in Calm     86 % 0.00 in
02:20 36.7 °F 32.9 °F 30.22 in Calm     86 % 0.00 in
02:35 36.5 °F 32.7 °F 30.21 in Calm     86 % 0.00 in
02:40 36.4 °F 32.6 °F 30.21 in Calm     86 % 0.00 in
02:45 36.3 °F 32.5 °F 30.21 in Calm     86 % 0.00 in
02:50 36.2 °F 32.4 °F 30.21 in Calm   1.2 mph 86 % 0.00 in
02:55 36.1 °F 32.6 °F 30.21 in Calm     87 % 0.00 in
03:01 36.1 °F 32.6 °F 30.21 in Calm     87 % 0.00 in
03:06 36.0 °F 32.5 °F 30.22 in Calm     87 % 0.00 in
03:11 36.0 °F 32.5 °F 30.22 in Calm     87 % 0.00 in
03:16 35.9 °F 32.4 °F 30.21 in Calm     87 % 0.00 in
03:21 35.9 °F 32.4 °F 30.22 in Calm     87 % 0.00 in
03:31 35.7 °F 32.2 °F 30.21 in Calm     87 % 0.00 in
03:36 35.7 °F 32.2 °F 30.21 in Calm     87 % 0.00 in
03:41 35.6 °F 32.1 °F 30.21 in Calm     87 % 0.00 in
03:46 35.6 °F 32.1 °F 30.21 in Calm     87 % 0.00 in
03:52 35.5 °F 32.0 °F 30.21 in Calm     87 % 0.00 in
03:57 35.5 °F 32.0 °F 30.21 in Calm     87 % 0.00 in
04:02 35.4 °F 32.2 °F 30.21 in Calm   1.2 mph 88 % 0.00 in
04:07 35.4 °F 32.2 °F 30.21 in South 0.1 mph 1.2 mph 88 % 0.00 in
04:12 35.3 °F 32.1 °F 30.21 in Calm     88 % 0.00 in
04:23 35.3 °F 32.1 °F 30.21 in Calm     88 % 0.00 in
04:28 35.3 °F 32.4 °F 30.21 in Calm     89 % 0.00 in
04:33 35.3 °F 32.4 °F 30.22 in Calm   1.2 mph 89 % 0.00 in
04:38 35.3 °F 32.4 °F 30.22 in Calm     89 % 0.00 in
04:48 35.4 °F 32.5 °F 30.21 in Calm     89 % 0.00 in
04:53 35.4 °F 32.5 °F 30.21 in Calm     89 % 0.00 in
04:58 35.4 °F 32.5 °F 30.21 in Calm     89 % 0.00 in
05:04 35.4 °F 32.5 °F 30.21 in Calm     89 % 0.00 in
05:09 35.4 °F 32.5 °F 30.21 in Calm     89 % 0.00 in
05:14 35.4 °F 32.5 °F 30.21 in Calm     89 % 0.00 in
05:19 35.3 °F 32.4 °F 30.21 in Calm     89 % 0.00 in
05:24 35.3 °F 32.4 °F 30.21 in Calm   1.2 mph 89 % 0.00 in
05:29 35.2 °F 32.3 °F 30.22 in South 0.1 mph 1.2 mph 89 % 0.00 in
05:34 35.2 °F 32.3 °F 30.22 in Calm     89 % 0.00 in
05:39 35.2 °F 32.3 °F 30.22 in Calm     89 % 0.00 in
05:44 35.2 °F 32.3 °F 30.22 in Calm     89 % 0.00 in
05:50 35.1 °F 32.2 °F 30.23 in Calm     89 % 0.00 in
05:55 35.1 °F 32.2 °F 30.23 in Calm     89 % 0.00 in
06:00 35.1 °F 32.5 °F 30.23 in Calm     90 % 0.00 in
06:05 35.1 °F 32.5 °F 30.23 in Calm     90 % 0.00 in
06:10 35.1 °F 32.5 °F 30.23 in Calm     90 % 0.00 in
06:15 35.1 °F 32.5 °F 30.23 in Calm     90 % 0.00 in
06:20 35.1 °F 32.5 °F 30.23 in Calm     90 % 0.00 in
06:25 35.1 °F 32.5 °F 30.23 in Calm     90 % 0.00 in
06:30 35.1 °F 32.5 °F 30.24 in Calm     90 % 0.00 in
06:35 35.1 °F 32.5 °F 30.23 in Calm     90 % 0.00 in
06:40 35.1 °F 32.5 °F 30.23 in Calm     90 % 0.00 in
06:46 35.1 °F 32.5 °F 30.23 in Calm     90 % 0.00 in
06:50 35.1 °F 32.5 °F 30.23 in Calm     90 % 0.00 in
06:56 35.1 °F 32.5 °F 30.22 in Calm     90 % 0.00 in
07:01 35.1 °F 32.5 °F 30.23 in Calm     90 % 0.00 in
07:06 35.0 °F 32.4 °F 30.23 in Calm     90 % 0.00 in
07:12 35.0 °F 32.4 °F 30.22 in Calm     90 % 0.00 in
07:17 34.9 °F 32.3 °F 30.22 in Calm     90 % 0.00 in
07:22 34.9 °F 32.3 °F 30.22 in Calm     90 % 0.00 in
07:27 34.9 °F 32.3 °F 30.22 in Calm     90 % 0.00 in
07:32 35.0 °F 32.4 °F 30.22 in Calm     90 % 0.00 in
07:37 35.0 °F 32.4 °F 30.22 in Calm     90 % 0.00 in
07:43 35.0 °F 32.6 °F 30.23 in Calm   1.0 mph 91 % 0.00 in
07:48 35.0 °F 32.6 °F 30.23 in Calm     91 % 0.00 in
07:53 35.1 °F 32.7 °F 30.23 in Calm     91 % 0.00 in
07:58 35.2 °F 32.8 °F 30.23 in Calm     91 % 0.00 in
07:59 35.2 °F 32.8 °F 30.23 in Calm     91 % 0.00 in
08:04 35.3 °F 32.9 °F 30.23 in Calm     91 % 0.00 in
08:10 35.5 °F 33.4 °F 30.23 in Calm     92 % 0.00 in
08:15 35.5 °F 33.4 °F 30.23 in Calm     92 % 0.00 in
08:20 35.6 °F 33.5 °F 30.23 in Calm     92 % 0.00 in
08:25 35.8 °F 33.7 °F 30.23 in Calm     92 % 0.00 in
08:30 36.0 °F 33.9 °F 30.23 in Calm     92 % 0.00 in
08:35 36.1 °F 34.0 °F 30.23 in Calm   1.2 mph 92 % 0.00 in
08:40 36.3 °F 34.5 °F 30.23 in Calm   1.2 mph 93 % 0.00 in
08:45 36.6 °F 34.8 °F 30.23 in Calm     93 % 0.00 in
08:50 36.9 °F 35.1 °F 30.23 in Calm     93 % 0.00 in
08:55 37.2 °F 35.4 °F 30.24 in Calm     93 % 0.00 in
09:00 37.7 °F 35.9 °F 30.24 in Calm     93 % 0.00 in
09:05 38.2 °F 36.4 °F 30.24 in Calm     93 % 0.00 in
09:10 38.6 °F 36.8 °F 30.24 in Calm     93 % 0.00 in
09:15 39.1 °F 37.0 °F 30.25 in Calm     92 % 0.00 in
09:20 39.6 °F 37.2 °F 30.25 in Calm     91 % 0.00 in
09:25 40.2 °F 37.5 °F 30.25 in North 0.1 mph   90 % 0.00 in
09:31 40.8 °F 38.1 °F 30.24 in Calm   2.0 mph 90 % 0.00 in
09:36 41.3 °F 38.3 °F 30.24 in North 2.0 mph 3.0 mph 89 % 0.00 in
09:41 41.8 °F 38.3 °F 30.24 in NE 1.0 mph 4.0 mph 87 % 0.00 in
09:46 42.3 °F 38.1 °F 30.24 in ENE 0.5 mph 2.3 mph 85 % 0.00 in
09:51 42.6 °F 38.4 °F 30.24 in Calm   2.0 mph 85 % 0.00 in
09:56 42.9 °F 38.4 °F 30.25 in Calm   1.0 mph 84 % 0.00 in
10:01 43.1 °F 38.3 °F 30.25 in Calm     83 % 0.00 in
10:06 43.3 °F 38.2 °F 30.25 in Calm     82 % 0.00 in
10:11 43.6 °F 38.5 °F 30.25 in Calm     82 % 0.00 in
10:16 43.8 °F 38.7 °F 30.25 in Calm     82 % 0.00 in
10:21 44.0 °F 38.9 °F 30.24 in ENE 0.1 mph 1.2 mph 82 % 0.00 in
10:23 44.0 °F 38.5 °F 30.24 in Calm     81 % 0.00 in
10:28 44.3 °F 38.8 °F 30.24 in ENE 0.1 mph 1.0 mph 81 % 0.00 in
10:33 44.5 °F 38.7 °F 30.23 in ENE 0.1 mph 1.2 mph 80 % 0.00 in
10:38 44.8 °F 39.0 °F 30.23 in ENE 0.9 mph 2.3 mph 80 % 0.00 in
10:43 45.1 °F 39.0 °F 30.22 in ENE 2.0 mph 3.5 mph 79 % 0.00 in
10:48 45.4 °F 38.9 °F 30.22 in ENE 1.6 mph 3.5 mph 78 % 0.00 in
10:53 45.6 °F 38.8 °F 30.22 in ENE 1.3 mph 3.0 mph 77 % 0.00 in
10:58 45.8 °F 39.0 °F 30.22 in ENE 1.6 mph 3.0 mph 77 % 0.00 in
11:03 46.0 °F 38.9 °F 30.22 in ENE 0.8 mph 2.3 mph 76 % 0.00 in
11:08 46.2 °F 39.1 °F 30.22 in ENE 1.0 mph 2.3 mph 76 % 0.00 in
11:13 46.4 °F 38.9 °F 30.22 in ENE 0.6 mph 2.3 mph 75 % 0.00 in
11:18 46.6 °F 39.1 °F 30.22 in ENE 0.9 mph 2.3 mph 75 % 0.00 in
11:23 46.7 °F 38.9 °F 30.22 in ENE 0.3 mph 1.2 mph 74 % 0.00 in
11:28 46.9 °F 38.7 °F 30.22 in ENE 2.2 mph 4.0 mph 73 % 0.00 in
11:34 46.9 °F 38.7 °F 30.22 in ENE 1.4 mph 3.5 mph 73 % 0.00 in
11:39 47.0 °F 38.8 °F 30.21 in ENE 1.8 mph 3.5 mph 73 % 0.00 in
11:44 47.2 °F 39.0 °F 30.21 in ENE 2.3 mph 3.5 mph 73 % 0.00 in
11:49 47.4 °F 39.2 °F 30.21 in ENE 1.7 mph 3.5 mph 73 % 0.00 in
11:54 47.5 °F 38.9 °F 30.21 in ENE 1.4 mph 4.0 mph 72 % 0.00 in
11:59 47.4 °F 38.8 °F 30.21 in ENE 2.7 mph 4.0 mph 72 % 0.00 in
12:04 47.5 °F 39.3 °F 30.21 in NE 2.6 mph 3.5 mph 73 % 0.00 in
12:09 47.8 °F 39.6 °F 30.21 in ENE 2.0 mph 3.5 mph 73 % 0.00 in
12:14 48.0 °F 39.8 °F 30.21 in East 2.0 mph 3.5 mph 73 % 0.00 in
12:23 48.5 °F 39.5 °F 30.20 in ENE 2.9 mph 3.5 mph 71 % 0.00 in
12:28 48.5 °F 39.2 °F 30.20 in NE 3.1 mph 4.6 mph 70 % 0.00 in
12:33 48.7 °F 39.7 °F 30.20 in ENE 2.8 mph 4.6 mph 71 % 0.00 in
12:38 48.8 °F 39.8 °F 30.19 in ENE 2.3 mph 3.5 mph 71 % 0.00 in
12:43 48.9 °F 40.3 °F 30.19 in ENE 1.5 mph 3.5 mph 72 % 0.00 in
12:48 48.8 °F 39.4 °F 30.19 in ENE 2.2 mph 3.5 mph 70 % 0.00 in
12:53 48.8 °F 39.8 °F 30.19 in ENE 2.3 mph 3.5 mph 71 % 0.00 in
12:58 48.6 °F 40.0 °F 30.19 in ENE 0.7 mph 2.3 mph 72 % 0.00 in
13:03 48.7 °F 40.8 °F 30.19 in NE 1.0 mph 2.3 mph 74 % 0.00 in
13:08 48.7 °F 40.4 °F 30.19 in ENE 2.9 mph 4.6 mph 73 % 0.00 in
13:14 48.8 °F 40.5 °F 30.19 in ENE 1.9 mph 3.5 mph 73 % 0.00 in
13:19 48.7 °F 40.1 °F 30.18 in ENE 1.8 mph 3.5 mph 72 % 0.00 in
13:24 48.7 °F 40.1 °F 30.19 in ENE 2.1 mph 3.5 mph 72 % 0.00 in
13:29 48.7 °F 40.4 °F 30.19 in ENE 1.5 mph 3.5 mph 73 % 0.00 in
13:34 48.7 °F 40.8 °F 30.18 in ENE 2.0 mph 3.5 mph 74 % 0.00 in
13:39 48.6 °F 40.7 °F 30.19 in NE 1.9 mph 3.5 mph 74 % 0.00 in
13:44 48.6 °F 40.7 °F 30.19 in ENE 1.8 mph 4.0 mph 74 % 0.00 in
13:49 48.5 °F 40.6 °F 30.19 in ENE 0.3 mph 2.3 mph 74 % 0.00 in
13:54 48.5 °F 40.6 °F 30.18 in ENE 2.0 mph 3.5 mph 74 % 0.00 in
13:59 48.4 °F 40.5 °F 30.18 in ENE 1.5 mph 3.5 mph 74 % 0.00 in
14:04 48.3 °F 40.4 °F 30.18 in ENE 1.2 mph 3.5 mph 74 % 0.00 in
14:09 48.2 °F 40.6 °F 30.19 in North 0.5 mph 2.3 mph 75 % 0.00 in
14:14 48.2 °F 40.6 °F 30.19 in ENE 1.3 mph 3.5 mph 75 % 0.00 in
14:19 48.1 °F 40.5 °F 30.19 in Calm     75 % 0.00 in
14:24 48.0 °F 40.5 °F 30.19 in ENE 0.7 mph 3.0 mph 75 % 0.00 in
14:29 47.9 °F 40.7 °F 30.19 in ENE 0.3 mph 1.2 mph 76 % 0.00 in
14:34 47.9 °F 40.7 °F 30.20 in NNE 0.5 mph   76 % 0.00 in
14:39 47.8 °F 40.6 °F 30.20 in NNE 0.2 mph 1.2 mph 76 % 0.00 in
14:44 47.8 °F 40.6 °F 30.20 in ENE 0.4 mph 3.5 mph 76 % 0.00 in
14:49 47.7 °F 40.8 °F 30.20 in NNE 0.3 mph 2.3 mph 77 % 0.00 in
14:54 47.6 °F 40.7 °F 30.20 in ENE 1.2 mph 3.0 mph 77 % 0.00 in
15:00 47.6 °F 40.7 °F 30.20 in Calm   3.5 mph 77 % 0.00 in
15:06 47.5 °F 40.6 °F 30.20 in ENE 0.3 mph 1.2 mph 77 % 0.00 in
15:11 47.4 °F 40.9 °F 30.21 in ENE 0.7 mph 1.2 mph 78 % 0.00 in
15:16 47.4 °F 40.9 °F 30.20 in ENE 2.0 mph 5.0 mph 78 % 0.00 in
15:21 47.3 °F 40.8 °F 30.20 in ENE 1.0 mph 3.0 mph 78 % 0.00 in
15:26 47.2 °F 40.7 °F 30.21 in ENE 1.2 mph 4.0 mph 78 % 0.00 in
15:31 47.2 °F 40.7 °F 30.20 in ENE 2.0 mph 3.0 mph 78 % 0.00 in
15:36 47.2 °F 41.0 °F 30.20 in ENE 0.2 mph 2.3 mph 79 % 0.00 in
15:41 47.2 °F 41.7 °F 30.20 in ENE 1.8 mph 3.5 mph 81 % 0.00 in
15:46 47.1 °F 42.2 °F 30.20 in Calm   1.2 mph 83 % 0.00 in
15:48 47.1 °F 42.2 °F 30.20 in Calm     83 % 0.00 in
15:53 47.0 °F 42.1 °F 30.20 in Calm     83 % 0.00 in
15:58 46.9 °F 42.0 °F 30.20 in Calm     83 % 0.00 in
16:08 46.7 °F 42.1 °F 30.21 in Calm     84 % 0.00 in
16:13 46.6 °F 42.0 °F 30.20 in Calm     84 % 0.00 in
16:18 46.5 °F 41.9 °F 30.21 in Calm     84 % 0.00 in
16:23 46.4 °F 41.8 °F 30.21 in Calm     84 % 0.00 in
16:28 46.4 °F 41.8 °F 30.21 in Calm     84 % 0.00 in
16:33 46.3 °F 41.7 °F 30.21 in Calm     84 % 0.00 in
16:39 46.2 °F 41.6 °F 30.22 in Calm     84 % 0.00 in
16:44 46.1 °F 41.5 °F 30.22 in Calm     84 % 0.00 in
16:49 46.1 °F 41.5 °F 30.22 in Calm     84 % 0.00 in
16:54 46.0 °F 41.7 °F 30.22 in Calm     85 % 0.00 in
16:59 45.9 °F 41.6 °F 30.22 in Calm     85 % 0.00 in
17:04 45.9 °F 41.6 °F 30.22 in Calm     85 % 0.00 in
17:09 45.8 °F 41.9 °F 30.22 in Calm     86 % 0.00 in
17:14 45.7 °F 41.8 °F 30.22 in Calm     86 % 0.00 in
17:19 45.7 °F 41.8 °F 30.22 in Calm     86 % 0.00 in
17:24 45.6 °F 41.7 °F 30.22 in Calm     86 % 0.00 in
17:29 45.5 °F 41.6 °F 30.22 in Calm     86 % 0.00 in
17:34 45.3 °F 41.4 °F 30.22 in Calm     86 % 0.00 in
17:39 45.1 °F 41.2 °F 30.22 in Calm     86 % 0.00 in
17:44 44.9 °F 41.3 °F 30.22 in Calm     87 % 0.00 in
17:49 44.7 °F 41.1 °F 30.23 in Calm     87 % 0.00 in
17:54 44.6 °F 41.0 °F 30.23 in Calm     87 % 0.00 in
17:59 44.5 °F 40.9 °F 30.23 in Calm     87 % 0.00 in
18:04 44.3 °F 40.7 °F 30.23 in Calm     87 % 0.00 in
18:09 44.3 °F 40.7 °F 30.24 in Calm     87 % 0.00 in
18:14 44.2 °F 40.6 °F 30.24 in Calm     87 % 0.00 in
18:20 44.1 °F 40.8 °F 30.24 in Calm     88 % 0.00 in
18:25 44.0 °F 40.7 °F 30.24 in Calm     88 % 0.00 in
18:30 44.0 °F 40.7 °F 30.24 in Calm     88 % 0.00 in
18:35 43.9 °F 40.6 °F 30.24 in Calm     88 % 0.00 in
18:40 43.9 °F 40.6 °F 30.24 in Calm     88 % 0.00 in
18:45 43.9 °F 40.9 °F 30.24 in Calm     89 % 0.00 in
18:50 43.8 °F 40.8 °F 30.24 in Calm     89 % 0.00 in
18:55 43.8 °F 40.8 °F 30.24 in Calm     89 % 0.00 in
19:00 43.7 °F 40.7 °F 30.24 in Calm     89 % 0.00 in
19:05 43.7 °F 40.7 °F 30.24 in Calm     89 % 0.00 in
19:10 43.7 °F 40.7 °F 30.25 in Calm     89 % 0.00 in
19:15 43.7 °F 41.0 °F 30.25 in Calm     90 % 0.00 in
19:20 43.7 °F 41.0 °F 30.25 in Calm     90 % 0.00 in
19:25 43.7 °F 41.0 °F 30.25 in Calm     90 % 0.00 in
19:30 43.7 °F 41.2 °F 30.25 in Calm     91 % 0.00 in
19:35 43.7 °F 41.2 °F 30.25 in Calm     91 % 0.00 in
19:40 43.7 °F 41.2 °F 30.25 in Calm     91 % 0.00 in
19:45 43.6 °F 40.9 °F 30.26 in Calm     90 % 0.00 in
19:50 43.6 °F 40.9 °F 30.25 in Calm     90 % 0.00 in
19:55 43.5 °F 40.8 °F 30.26 in Calm     90 % 0.00 in
20:00 43.5 °F 40.8 °F 30.26 in Calm     90 % 0.00 in
20:05 43.4 °F 40.7 °F 30.25 in Calm     90 % 0.00 in
20:10 43.4 °F 40.7 °F 30.26 in Calm     90 % 0.00 in
20:15 43.4 °F 40.7 °F 30.26 in Calm     90 % 0.00 in
20:16 43.4 °F 40.7 °F 30.25 in Calm     90 % 0.00 in
20:21 43.3 °F 40.6 °F 30.26 in Calm     90 % 0.00 in
20:26 43.3 °F 40.6 °F 30.26 in Calm     90 % 0.00 in
20:31 43.3 °F 40.6 °F 30.26 in Calm     90 % 0.00 in
20:37 43.2 °F 40.5 °F 30.26 in Calm     90 % 0.00 in
20:42 43.1 °F 40.4 °F 30.26 in Calm     90 % 0.00 in
20:47 43.1 °F 40.4 °F 30.27 in Calm     90 % 0.00 in
20:52 43.0 °F 40.3 °F 30.27 in Calm     90 % 0.00 in
20:57 42.9 °F 40.2 °F 30.27 in Calm     90 % 0.00 in
21:02 42.8 °F 40.1 °F 30.27 in Calm     90 % 0.00 in
21:07 42.7 °F 40.0 °F 30.27 in Calm     90 % 0.00 in
21:12 42.6 °F 39.9 °F 30.27 in Calm     90 % 0.00 in
21:17 42.5 °F 39.8 °F 30.28 in Calm     90 % 0.00 in
21:22 42.5 °F 39.8 °F 30.28 in Calm     90 % 0.00 in
21:27 42.4 °F 39.7 °F 30.28 in Calm     90 % 0.00 in
21:32 42.3 °F 39.6 °F 30.28 in Calm     90 % 0.00 in
21:37 42.2 °F 39.5 °F 30.28 in Calm     90 % 0.00 in
21:42 42.1 °F 39.4 °F 30.28 in Calm     90 % 0.00 in
21:47 42.0 °F 39.3 °F 30.28 in Calm     90 % 0.00 in
21:52 41.9 °F 39.2 °F 30.28 in Calm     90 % 0.00 in
21:57 41.8 °F 39.1 °F 30.28 in Calm     90 % 0.00 in
22:02 41.7 °F 39.0 °F 30.29 in Calm     90 % 0.00 in
22:07 41.6 °F 38.9 °F 30.28 in Calm     90 % 0.00 in
22:13 41.5 °F 38.8 °F 30.29 in Calm     90 % 0.00 in
22:18 41.4 °F 38.7 °F 30.06 in Calm     90 % 0.00 in
22:19 41.4 °F 38.7 °F 30.29 in Calm     90 % 0.00 in
22:21 41.3 °F 38.9 °F 30.29 in Calm     91 % 0.00 in
22:23 41.3 °F 38.9 °F 30.06 in Calm     91 % 0.00 in
22:26 41.2 °F 38.8 °F 30.29 in Calm     91 % 0.00 in
22:27 41.2 °F 38.8 °F 30.07 in Calm     91 % 0.00 in
22:31 41.1 °F 38.4 °F 30.29 in Calm     90 % 0.00 in
22:36 41.0 °F 38.3 °F 30.29 in Calm     90 % 0.00 in
22:37 40.9 °F 38.2 °F 30.30 in Calm     90 % 0.00 in
22:42 40.8 °F 38.1 °F 30.30 in Calm     90 % 0.00 in
22:43 40.8 °F 38.1 °F 30.30 in Calm     90 % 0.00 in
22:48 40.6 °F 37.9 °F 30.29 in Calm     90 % 0.00 in
22:53 40.5 °F 37.8 °F 30.30 in Calm     90 % 0.00 in
22:58 40.3 °F 37.6 °F 30.29 in Calm     90 % 0.00 in
23:03 40.1 °F 37.4 °F 30.29 in Calm     90 % 0.00 in
23:08 39.9 °F 37.2 °F 30.30 in Calm     90 % 0.00 in
23:13 39.7 °F 37.0 °F 30.30 in Calm     90 % 0.00 in
23:24 39.5 °F 37.1 °F 30.30 in Calm     91 % 0.00 in
23:29 39.3 °F 36.9 °F 30.30 in Calm   1.0 mph 91 % 0.00 in
23:34 39.1 °F 36.7 °F 30.31 in ENE 0.2 mph 1.2 mph 91 % 0.00 in
23:39 38.9 °F 36.5 °F 30.31 in Calm     91 % 0.00 in
23:44 38.8 °F 36.4 °F 30.31 in Calm     91 % 0.00 in
23:49 38.7 °F 36.3 °F 30.31 in Calm     91 % 0.00 in
23:54 38.5 °F 36.1 °F 30.31 in Calm     91 % 0.00 in
23:59 38.4 °F 36.0 °F 30.31 in Calm     91 % 0.00 in
Crab Meadow Weather
Compliments of Weather Underground - 3 mb

Script developed by  Jim McMurry - jmcmurry@mwt.net Adapted for the template by  Wim van der Kuil - Leuven-Template.eu

Weather Terms: Flash Flood Warning - Flash flooding is occurring, imminent or highly likely. A flash flood is a flood that occurs within 6 hours of excessive rainfall and that poses a threat to life and/or property. Ice jams and dam failures can also cause flash floods. These warnings are issued on a county by county basis by the local Weather Forecast Office in Upton and are generally in effect for up to 6 hours.